Time,TemperatureF,DewpointF,PressureIn,WindDirection,WindDirectionDegrees,WindSpeedMPH,WindSpeedGustMPH,Humidity,HourlyPrecipIn,Conditions,Clouds,dailyrainin,SoftwareType,DateUTC
2013-09-03 00:05:00,56.4,54.0,29.92,NW,317,4.0,6.0,91,0.00,,,0.00,weatherlink.com 1.10,2013-09-03 04:05:00,
2013-09-03 00:20:00,56.2,53.0,29.92,NW,313,5.0,7.0,90,0.00,,,0.00,weatherlink.com 1.10,2013-09-03 04:20:00,
2013-09-03 00:35:00,55.8,53.0,29.92,NW,312,0.0,5.0,90,0.00,,,0.00,weatherlink.com 1.10,2013-09-03 04:35:00,
2013-09-03 00:50:00,55.3,53.0,29.92,NW,323,1.0,7.0,90,0.00,,,0.00,weatherlink.com 1.10,2013-09-03 04:50:00,
2013-09-03 01:06:00,54.7,52.0,29.92,WNW,301,4.0,6.0,91,0.00,,,0.00,weatherlink.com 1.10,2013-09-03 05:06:00,
2013-09-03 01:21:00,54.5,52.0,29.92,NW,313,3.0,6.0,91,0.00,,,0.00,weatherlink.com 1.10,2013-09-03 05:21:00,
2013-09-03 01:36:00,54.5,52.0,29.92,NW,309,2.0,7.0,90,0.00,,,0.00,weatherlink.com 1.10,2013-09-03 05:36:00,
2013-09-03 01:51:00,54.1,51.0,29.92,NW,311,3.0,5.0,90,0.00,,,0.00,weatherlink.com 1.10,2013-09-03 05:51:00,
2013-09-03 02:06:00,54.1,51.0,29.92,NNW,345,2.0,8.0,90,0.00,,,0.00,weatherlink.com 1.10,2013-09-03 06:06:00,
2013-09-03 02:21:00,54.4,51.0,29.91,NW,315,3.0,5.0,88,0.00,,,0.00,weatherlink.com 1.10,2013-09-03 06:21:00,
2013-09-03 02:36:00,53.9,51.0,29.91,NW,317,1.0,2.0,88,0.00,,,0.00,weatherlink.com 1.10,2013-09-03 06:36:00,
2013-09-03 02:51:00,53.7,51.0,29.92,NW,317,0.0,2.0,89,0.00,,,0.00,weatherlink.com 1.10,2013-09-03 06:51:00,
2013-09-03 03:06:00,52.6,50.0,29.92,NW,317,0.0,0.0,89,0.00,,,0.00,weatherlink.com 1.10,2013-09-03 07:06:00,
2013-09-03 03:21:00,51.4,49.0,29.92,NW,317,0.0,0.0,91,0.00,,,0.00,weatherlink.com 1.10,2013-09-03 07:21:00,
2013-09-03 03:36:00,50.6,49.0,29.93,NW,317,0.0,1.0,93,0.00,,,0.00,weatherlink.com 1.10,2013-09-03 07:36:00,
2013-09-03 03:51:00,50.1,49.0,29.93,NW,317,2.0,2.0,95,0.00,,,0.00,weatherlink.com 1.10,2013-09-03 07:51:00,
2013-09-03 04:06:00,50.3,49.0,29.93,NW,317,0.0,2.0,95,0.00,,,0.00,weatherlink.com 1.10,2013-09-03 08:06:00,
2013-09-03 04:21:00,50.1,49.0,29.94,NW,317,0.0,0.0,95,0.00,,,0.00,weatherlink.com 1.10,2013-09-03 08:21:00,
2013-09-03 04:36:00,50.1,49.0,29.94,NW,317,0.0,0.0,95,0.00,,,0.00,weatherlink.com 1.10,2013-09-03 08:36:00,
2013-09-03 04:51:00,49.7,48.0,29.94,NW,317,0.0,0.0,95,0.00,,,0.00,weatherlink.com 1.10,2013-09-03 08:51:00,
2013-09-03 05:06:00,49.1,48.0,29.94,NW,317,0.0,0.0,95,0.00,,,0.00,weatherlink.com 1.10,2013-09-03 09:06:00,
2013-09-03 05:21:00,48.6,48.0,29.95,NW,317,0.0,0.0,96,0.00,,,0.00,weatherlink.com 1.10,2013-09-03 09:21:00,
2013-09-03 05:36:00,48.4,47.0,29.95,NW,317,0.0,0.0,96,0.00,,,0.00,weatherlink.com 1.10,2013-09-03 09:36:00,
2013-09-03 05:51:00,49.1,48.0,29.96,NW,317,0.0,2.0,97,0.00,,,0.00,weatherlink.com 1.10,2013-09-03 09:51:00,
2013-09-03 06:06:00,48.7,48.0,29.96,NW,317,0.0,0.0,96,0.00,,,0.00,weatherlink.com 1.10,2013-09-03 10:06:00,
2013-09-03 06:21:00,49.0,48.0,29.97,NW,317,0.0,0.0,97,0.00,,,0.00,weatherlink.com 1.10,2013-09-03 10:21:00,
2013-09-03 06:36:00,49.6,49.0,29.98,NW,317,0.0,0.0,98,0.00,,,0.00,weatherlink.com 1.10,2013-09-03 10:36:00,
2013-09-03 06:51:00,50.6,50.0,29.98,NW,317,0.0,0.0,98,0.00,,,0.00,weatherlink.com 1.10,2013-09-03 10:51:00,
2013-09-03 07:06:00,51.1,51.0,29.99,NW,317,0.0,0.0,98,0.00,,,0.00,weatherlink.com 1.10,2013-09-03 11:06:00,
2013-09-03 07:21:00,52.3,52.0,29.99,NW,317,0.0,0.0,98,0.00,,,0.00,weatherlink.com 1.10,2013-09-03 11:21:00,
2013-09-03 07:36:00,53.0,53.0,29.99,NW,317,0.0,0.0,98,0.00,,,0.00,weatherlink.com 1.10,2013-09-03 11:36:00,
2013-09-03 07:51:00,53.8,54.0,30.00,NW,317,0.0,0.0,99,0.00,,,0.00,weatherlink.com 1.10,2013-09-03 11:51:00,
2013-09-03 08:06:00,54.7,55.0,30.00,NW,317,0.0,1.0,99,0.00,,,0.00,weatherlink.com 1.10,2013-09-03 12:06:00,
2013-09-03 08:21:00,55.6,55.0,30.00,NW,313,0.0,4.0,98,0.00,,,0.00,weatherlink.com 1.10,2013-09-03 12:21:00,
2013-09-03 08:36:00,56.4,55.0,30.00,NW,312,0.0,4.0,95,0.00,,,0.00,weatherlink.com 1.10,2013-09-03 12:36:00,
2013-09-03 08:51:00,57.4,55.0,30.01,NW,309,2.0,4.0,93,0.00,,,0.00,weatherlink.com 1.10,2013-09-03 12:51:00,
2013-09-03 09:07:00,58.4,56.0,30.01,WNW,297,3.0,7.0,90,0.00,,,0.00,weatherlink.com 1.10,2013-09-03 13:07:00,
2013-09-03 09:22:00,59.4,55.0,30.01,NW,309,5.0,9.0,86,0.00,,,0.00,weatherlink.com 1.10,2013-09-03 13:22:00,
2013-09-03 09:37:00,60.7,55.0,30.02,WNW,303,5.0,7.0,82,0.00,,,0.00,weatherlink.com 1.10,2013-09-03 13:37:00,
2013-09-03 09:52:00,61.9,56.0,30.02,NW,316,7.0,8.0,80,0.00,,,0.00,weatherlink.com 1.10,2013-09-03 13:52:00,
2013-09-03 10:07:00,63.1,55.0,30.02,NW,311,9.0,9.0,76,0.00,,,0.00,weatherlink.com 1.10,2013-09-03 14:07:00,
2013-09-03 10:22:00,63.4,55.0,30.02,NNW,328,4.0,11.0,75,0.00,,,0.00,weatherlink.com 1.10,2013-09-03 14:22:00,
2013-09-03 10:37:00,64.8,57.0,30.02,NNW,328,5.0,9.0,75,0.00,,,0.00,weatherlink.com 1.10,2013-09-03 14:37:00,
2013-09-03 10:52:00,65.3,56.0,30.02,NW,315,6.0,12.0,72,0.00,,,0.00,weatherlink.com 1.10,2013-09-03 14:52:00,
2013-09-03 11:07:00,65.7,56.0,30.02,North,355,4.0,13.0,71,0.00,,,0.00,weatherlink.com 1.10,2013-09-03 15:07:00,
2013-09-03 11:22:00,66.8,57.0,30.02,NE,42,10.0,13.0,70,0.00,,,0.00,weatherlink.com 1.10,2013-09-03 15:22:00,
2013-09-03 11:37:00,67.0,57.0,30.02,NW,311,6.0,10.0,70,0.00,,,0.00,weatherlink.com 1.10,2013-09-03 15:37:00,
2013-09-03 11:52:00,67.8,57.0,30.02,West,276,10.0,13.0,69,0.00,,,0.00,weatherlink.com 1.10,2013-09-03 15:52:00,
2013-09-03 12:07:00,68.3,57.0,30.02,NW,325,6.0,14.0,68,0.00,,,0.00,weatherlink.com 1.10,2013-09-03 16:07:00,
2013-09-03 12:22:00,68.6,57.0,30.02,NW,306,8.0,13.0,66,0.00,,,0.00,weatherlink.com 1.10,2013-09-03 16:22:00,
2013-09-03 12:37:00,68.8,57.0,30.02,WNW,298,7.0,13.0,66,0.00,,,0.00,weatherlink.com 1.10,2013-09-03 16:37:00,
2013-09-03 12:52:00,69.0,58.0,30.02,NW,315,6.0,13.0,67,0.00,,,0.00,weatherlink.com 1.10,2013-09-03 16:52:00,
2013-09-03 13:07:00,70.1,59.0,30.02,NW,323,5.0,13.0,67,0.00,,,0.00,weatherlink.com 1.10,2013-09-03 17:07:00,
2013-09-03 13:22:00,70.8,58.0,30.02,NW,324,8.0,14.0,65,0.00,,,0.00,weatherlink.com 1.10,2013-09-03 17:22:00,
2013-09-03 13:37:00,70.0,58.0,30.02,NW,321,5.0,12.0,67,0.00,,,0.00,weatherlink.com 1.10,2013-09-03 17:37:00,
2013-09-03 13:52:00,71.2,58.0,30.01,NW,321,4.0,12.0,64,0.00,,,0.00,weatherlink.com 1.10,2013-09-03 17:52:00,
2013-09-03 14:07:00,71.6,58.0,30.01,West,275,6.0,11.0,62,0.00,,,0.00,weatherlink.com 1.10,2013-09-03 18:07:00,
2013-09-03 14:22:00,72.2,59.0,30.01,NW,318,8.0,12.0,63,0.00,,,0.00,weatherlink.com 1.10,2013-09-03 18:22:00,
2013-09-03 14:37:00,72.2,58.0,30.01,NNW,336,4.0,13.0,61,0.00,,,0.00,weatherlink.com 1.10,2013-09-03 18:37:00,
2013-09-03 14:52:00,72.2,58.0,30.00,WSW,255,1.0,11.0,61,0.00,,,0.00,weatherlink.com 1.10,2013-09-03 18:52:00,
2013-09-03 15:07:00,72.1,60.0,30.00,WNW,300,6.0,10.0,65,0.00,,,0.00,weatherlink.com 1.10,2013-09-03 19:07:00,
2013-09-03 15:23:00,72.6,59.0,29.99,WNW,300,7.0,11.0,62,0.00,,,0.00,weatherlink.com 1.10,2013-09-03 19:23:00,
2013-09-03 15:37:00,73.3,60.0,29.99,WSW,246,4.0,10.0,63,0.00,,,0.00,weatherlink.com 1.10,2013-09-03 19:37:00,
2013-09-03 15:53:00,73.7,58.0,29.98,NW,305,2.0,8.0,59,0.00,,,0.00,weatherlink.com 1.10,2013-09-03 19:53:00,
2013-09-03 16:08:00,73.9,59.0,29.98,WNW,296,7.0,10.0,61,0.00,,,0.00,weatherlink.com 1.10,2013-09-03 20:08:00,
2013-09-03 16:23:00,74.1,59.0,29.98,NW,306,5.0,8.0,60,0.00,,,0.00,weatherlink.com 1.10,2013-09-03 20:23:00,
2013-09-03 16:38:00,74.4,59.0,29.98,WNW,298,4.0,11.0,59,0.00,,,0.00,weatherlink.com 1.10,2013-09-03 20:38:00,
2013-09-03 16:52:00,74.6,60.0,29.98,WNW,296,7.0,9.0,60,0.00,,,0.00,weatherlink.com 1.10,2013-09-03 20:52:00,
2013-09-03 17:08:00,73.6,59.0,29.98,NW,314,5.0,10.0,60,0.00,,,0.00,weatherlink.com 1.10,2013-09-03 21:08:00,
2013-09-03 17:23:00,74.4,59.0,29.98,West,271,0.0,7.0,60,0.00,,,0.00,weatherlink.com 1.10,2013-09-03 21:23:00,
2013-09-03 17:38:00,74.4,58.0,29.98,West,279,2.0,11.0,57,0.00,,,0.00,weatherlink.com 1.10,2013-09-03 21:38:00,
2013-09-03 17:53:00,74.3,59.0,29.98,WNW,294,1.0,7.0,60,0.00,,,0.00,weatherlink.com 1.10,2013-09-03 21:53:00,
2013-09-03 18:08:00,74.4,59.0,29.98,WNW,295,2.0,8.0,60,0.00,,,0.00,weatherlink.com 1.10,2013-09-03 22:08:00,
2013-09-03 18:23:00,74.3,60.0,29.98,NW,313,3.0,6.0,61,0.00,,,0.00,weatherlink.com 1.10,2013-09-03 22:23:00,
2013-09-03 18:38:00,74.2,60.0,29.98,NW,325,2.0,6.0,61,0.00,,,0.00,weatherlink.com 1.10,2013-09-03 22:38:00,
2013-09-03 18:53:00,74.2,61.0,29.98,West,266,0.0,6.0,63,0.00,,,0.00,weatherlink.com 1.10,2013-09-03 22:53:00,
2013-09-03 19:08:00,73.4,59.0,29.98,WSW,252,1.0,5.0,62,0.00,,,0.00,weatherlink.com 1.10,2013-09-03 23:08:00,
2013-09-03 19:23:00,72.4,59.0,29.99,WSW,239,2.0,3.0,63,0.00,,,0.00,weatherlink.com 1.10,2013-09-03 23:23:00,
2013-09-03 19:38:00,70.4,59.0,29.99,WSW,242,0.0,2.0,68,0.00,,,0.00,weatherlink.com 1.10,2013-09-03 23:38:00,
2013-09-03 19:53:00,68.8,59.0,29.99,NW,322,1.0,6.0,71,0.00,,,0.00,weatherlink.com 1.10,2013-09-03 23:53:00,
2013-09-03 20:08:00,67.6,59.0,29.99,WSW,243,0.0,2.0,73,0.00,,,0.00,weatherlink.com 1.10,2013-09-04 00:08:00,
2013-09-03 20:23:00,66.5,58.0,30.00,WSW,243,0.0,3.0,75,0.00,,,0.00,weatherlink.com 1.10,2013-09-04 00:23:00,
2013-09-03 20:38:00,65.5,58.0,30.00,WSW,243,0.0,1.0,77,0.00,,,0.00,weatherlink.com 1.10,2013-09-04 00:38:00,
2013-09-03 20:53:00,64.0,58.0,30.01,WSW,243,0.0,1.0,80,0.00,,,0.00,weatherlink.com 1.10,2013-09-04 00:53:00,
2013-09-03 21:08:00,61.9,57.0,30.01,WSW,243,0.0,0.0,83,0.00,,,0.00,weatherlink.com 1.10,2013-09-04 01:08:00,
2013-09-03 21:23:00,60.5,56.0,30.01,WSW,243,0.0,0.0,86,0.00,,,0.00,weatherlink.com 1.10,2013-09-04 01:23:00,
2013-09-03 21:38:00,59.3,56.0,30.01,WSW,243,0.0,0.0,87,0.00,,,0.00,weatherlink.com 1.10,2013-09-04 01:38:00,
2013-09-03 21:53:00,58.8,55.0,30.02,WSW,243,0.0,0.0,88,0.00,,,0.00,weatherlink.com 1.10,2013-09-04 01:53:00,
2013-09-03 22:08:00,58.1,55.0,30.02,WSW,243,0.0,0.0,89,0.00,,,0.00,weatherlink.com 1.10,2013-09-04 02:08:00,
2013-09-03 22:23:00,57.5,55.0,30.02,WSW,243,0.0,0.0,91,0.00,,,0.00,weatherlink.com 1.10,2013-09-04 02:23:00,
2013-09-03 22:38:00,57.2,55.0,30.02,WSW,243,0.0,0.0,92,0.00,,,0.00,weatherlink.com 1.10,2013-09-04 02:38:00,
2013-09-03 22:52:00,56.4,54.0,30.02,WSW,243,0.0,0.0,92,0.00,,,0.00,weatherlink.com 1.10,2013-09-04 02:52:00,
2013-09-03 23:08:00,55.8,54.0,30.02,WSW,243,0.0,0.0,93,0.00,,,0.00,weatherlink.com 1.10,2013-09-04 03:08:00,
2013-09-03 23:23:00,55.0,53.0,30.02,WSW,243,0.0,0.0,93,0.00,,,0.00,weatherlink.com 1.10,2013-09-04 03:23:00,
2013-09-03 23:37:00,54.4,53.0,30.02,WSW,243,0.0,0.0,93,0.00,,,0.00,weatherlink.com 1.10,2013-09-04 03:37:00,
2013-09-03 23:53:00,53.9,52.0,30.02,WSW,243,0.0,0.0,94,0.00,,,0.00,weatherlink.com 1.10,2013-09-04 03:53:00,